owner,sensor,date,latitude,longitude,vertical_datum,wind_speed,wind_to_direction,wind_speed_of_gust,qcFlag 
ADCP,ioos:station:wmo:42361:1,2017-09-01T00:30:00Z,27.5500,-92.4900,122.0,4.0,230.0,-9999.0,'1111122,1111122,1111122' 
ADCP,ioos:station:wmo:42361:1,2017-09-01T01:30:00Z,27.5500,-92.4900,122.0,4.0,220.0,-9999.0,'1111122,1111122,1111122' 
ADCP,ioos:station:wmo:42361:1,2017-09-01T02:30:00Z,27.5500,-92.4900,122.0,4.0,220.0,-9999.0,'1111122,1111122,1111122' 
ADCP,ioos:station:wmo:42361:1,2017-09-01T03:30:00Z,27.5500,-92.4900,122.0,3.0,240.0,-9999.0,'1111122,1111122,1111122' 
ADCP,ioos:station:wmo:42361:1,2017-09-01T04:30:00Z,27.5500,-92.4900,122.0,3.0,240.0,-9999.0,'1111122,1111122,1111122' 
ADCP,ioos:station:wmo:42361:1,2017-09-01T05:30:00Z,27.5500,-92.4900,122.0,3.0,240.0,-9999.0,'1111122,1111122,1111122' 
ADCP,ioos:station:wmo:42361:1,2017-09-01T06:30:00Z,27.5500,-92.4900,122.0,3.0,200.0,-9999.0,'1111122,1111122,1111122' 
ADCP,ioos:station:wmo:42361:1,2017-09-01T07:30:00Z,27.5500,-92.4900,122.0,3.0,180.0,-9999.0,'1111122,1111122,1111122' 
ADCP,ioos:station:wmo:42361:1,2017-09-01T08:30:00Z,27.5500,-92.4900,122.0,3.0,170.0,-9999.0,'1111122,1111122,1111122' 
ADCP,ioos:station:wmo:42361:1,2017-09-01T09:30:00Z,27.5500,-92.4900,122.0,3.0,180.0,-9999.0,'1111122,1111122,1111122' 
ADCP,ioos:station:wmo:42361:1,2017-09-01T10:30:00Z,27.5500,-92.4900,122.0,3.0,180.0,-9999.0,'1111122,1111122,1111122' 
ADCP,ioos:station:wmo:42361:1,2017-09-01T11:30:00Z,27.5500,-92.4900,122.0,3.0,180.0,-9999.0,'1111122,1111122,1111122' 
ADCP,ioos:station:wmo:42361:1,2017-09-01T12:30:00Z,27.5500,-92.4900,122.0,3.0,180.0,-9999.0,'1111122,1111122,1111122' 
ADCP,ioos:station:wmo:42361:1,2017-09-01T13:30:00Z,27.5500,-92.4900,122.0,2.0,210.0,-9999.0,'1111122,1111122,1111122' 
ADCP,ioos:station:wmo:42361:1,2017-09-01T14:30:00Z,27.5500,-92.4900,122.0,2.0,260.0,-9999.0,'1111122,1111122,1111122' 
ADCP,ioos:station:wmo:42361:1,2017-09-01T15:30:00Z,27.5500,-92.4900,122.0,2.0,270.0,-9999.0,'1111122,1111122,1111122' 
ADCP,ioos:station:wmo:42361:1,2017-09-01T16:30:00Z,27.5500,-92.4900,122.0,1.0,310.0,-9999.0,'1111122,1111122,1111122' 
ADCP,ioos:station:wmo:42361:1,2017-09-01T17:30:00Z,27.5500,-92.4900,122.0,0.4,316.0,99.0,'11111222,11111222,11144222' 
ADCP,ioos:station:wmo:42361:1,2017-09-01T18:30:00Z,27.5500,-92.4900,122.0,0.3,335.0,99.0,'11111222,11111222,11144222' 
ADCP,ioos:station:wmo:42361:1,2017-09-01T19:30:00Z,27.5500,-92.4900,122.0,2.0,220.0,-9999.0,'1111122,1111122,1111122' 
ADCP,ioos:station:wmo:42361:1,2017-09-01T20:30:00Z,27.5500,-92.4900,122.0,2.0,230.0,-9999.0,'1111122,1111122,1111122' 
ADCP,ioos:station:wmo:42361:1,2017-09-01T21:30:00Z,27.5500,-92.4900,122.0,2.0,250.0,-9999.0,'1111122,1111122,1111122' 
ADCP,ioos:station:wmo:42361:1,2017-09-01T22:30:00Z,27.5500,-92.4900,122.0,4.0,280.0,-9999.0,'1111122,1111122,1111122' 
ADCP,ioos:station:wmo:42361:1,2017-09-01T23:30:00Z,27.5500,-92.4900,122.0,3.8,285.0,99.0,'11111222,11111222,11144222' 
ADCP,ioos:station:wmo:42361:1,2017-09-02T00:30:00Z,27.5500,-92.4900,122.0,3.0,310.0,-9999.0,'1111122,1111122,1111122' 
ADCP,ioos:station:wmo:42361:1,2017-09-02T01:30:00Z,27.5500,-92.4900,122.0,3.0,340.0,-9999.0,'1111122,1111122,1111122' 
ADCP,ioos:station:wmo:42361:1,2017-09-02T02:30:00Z,27.5500,-92.4900,122.0,2.0,40.0,-9999.0,'1111122,1111122,1111122' 
ADCP,ioos:station:wmo:42361:1,2017-09-02T03:30:00Z,27.5500,-92.4900,122.0,1.0,30.0,-9999.0,'1111122,1111122,1111122' 
ADCP,ioos:station:wmo:42361:1,2017-09-02T04:30:00Z,27.5500,-92.4900,122.0,1.0,50.0,-9999.0,'1111122,1111122,1111122' 
ADCP,ioos:station:wmo:42361:1,2017-09-02T05:30:00Z,27.5500,-92.4900,122.0,2.0,80.0,-9999.0,'1111122,1111122,1111122' 
ADCP,ioos:station:wmo:42361:1,2017-09-02T06:30:00Z,27.5500,-92.4900,122.0,3.0,80.0,-9999.0,'1111122,1111122,1111122' 
ADCP,ioos:station:wmo:42361:1,2017-09-02T07:30:00Z,27.5500,-92.4900,122.0,2.0,60.0,-9999.0,'1111122,1111122,1111122' 
ADCP,ioos:station:wmo:42361:1,2017-09-02T08:30:00Z,27.5500,-92.4900,122.0,1.0,30.0,-9999.0,'1111122,1111122,1111122' 
ADCP,ioos:station:wmo:42361:1,2017-09-02T09:30:00Z,27.5500,-92.4900,122.0,0.5,28.0,99.0,'11111222,11111222,11144222' 
ADCP,ioos:station:wmo:42361:1,2017-09-02T10:30:00Z,27.5500,-92.4900,122.0,0.3,16.0,99.0,'11111222,11111222,11144222' 
ADCP,ioos:station:wmo:42361:1,2017-09-02T11:30:00Z,27.5500,-92.4900,122.0,1.0,50.0,-9999.0,'1111122,1111122,1111122' 
ADCP,ioos:station:wmo:42361:1,2017-09-02T12:30:00Z,27.5500,-92.4900,122.0,2.0,40.0,-9999.0,'1111122,1111122,1111122' 
ADCP,ioos:station:wmo:42361:1,2017-09-02T13:30:00Z,27.5500,-92.4900,122.0,2.0,30.0,-9999.0,'1111122,1111122,1111122' 
ADCP,ioos:station:wmo:42361:1,2017-09-02T14:30:00Z,27.5500,-92.4900,122.0,2.0,10.0,-9999.0,'1111122,1111122,1111122' 
ADCP,ioos:station:wmo:42361:1,2017-09-02T15:30:00Z,27.5500,-92.4900,122.0,2.0,360.0,-9999.0,'1111122,1111122,1111122' 
ADCP,ioos:station:wmo:42361:1,2017-09-02T16:30:00Z,27.5500,-92.4900,122.0,2.0,10.0,-9999.0,'1111122,1111122,1111122' 
ADCP,ioos:station:wmo:42361:1,2017-09-02T17:30:00Z,27.5500,-92.4900,122.0,2.0,10.0,-9999.0,'1111122,1111122,1111122' 
ADCP,ioos:station:wmo:42361:1,2017-09-02T18:30:00Z,27.5500,-92.4900,122.0,3.0,360.0,-9999.0,'1111122,1111122,1111122' 
ADCP,ioos:station:wmo:42361:1,2017-09-02T19:30:00Z,27.5500,-92.4900,122.0,3.0,360.0,-9999.0,'1111122,1111122,1111122' 
ADCP,ioos:station:wmo:42361:1,2017-09-02T20:30:00Z,27.5500,-92.4900,122.0,4.0,360.0,-9999.0,'1111122,1111122,1111122' 
ADCP,ioos:station:wmo:42361:1,2017-09-02T21:30:00Z,27.5500,-92.4900,122.0,4.0,360.0,-9999.0,'1111122,1111122,1111122' 
ADCP,ioos:station:wmo:42361:1,2017-09-02T22:30:00Z,27.5500,-92.4900,122.0,4.0,360.0,-9999.0,'1111122,1111122,1111122' 
ADCP,ioos:station:wmo:42361:1,2017-09-02T23:30:00Z,27.5500,-92.4900,122.0,4.0,10.0,-9999.0,'1111122,1111122,1111122' 
ADCP,ioos:station:wmo:42361:1,2017-09-03T00:30:00Z,27.5500,-92.4900,122.0,4.0,20.0,-9999.0,'1111122,1111122,1111122' 
ADCP,ioos:station:wmo:42361:1,2017-09-03T01:30:00Z,27.5500,-92.4900,122.0,4.1,21.0,99.0,'11111222,11111222,11144222' 
ADCP,ioos:station:wmo:42361:1,2017-09-03T02:30:00Z,27.5500,-92.4900,122.0,4.0,30.0,-9999.0,'1111122,1111122,1111122' 
ADCP,ioos:station:wmo:42361:1,2017-09-03T03:30:00Z,27.5500,-92.4900,122.0,4.0,20.0,-9999.0,'1111122,1111122,1111122' 
ADCP,ioos:station:wmo:42361:1,2017-09-03T04:30:00Z,27.5500,-92.4900,122.0,5.0,30.0,-9999.0,'1111122,1111122,1111122' 
ADCP,ioos:station:wmo:42361:1,2017-09-03T05:30:00Z,27.5500,-92.4900,122.0,4.8,35.0,99.0,'11111222,11111222,11144222' 
ADCP,ioos:station:wmo:42361:1,2017-09-03T06:30:00Z,27.5500,-92.4900,122.0,4.0,60.0,-9999.0,'1111122,1111122,1111122' 
ADCP,ioos:station:wmo:42361:1,2017-09-03T07:30:00Z,27.5500,-92.4900,122.0,4.0,60.0,-9999.0,'1111122,1111122,1111122' 
ADCP,ioos:station:wmo:42361:1,2017-09-03T08:30:00Z,27.5500,-92.4900,122.0,5.0,50.0,-9999.0,'1111122,1111122,1111122' 
ADCP,ioos:station:wmo:42361:1,2017-09-03T09:30:00Z,27.5500,-92.4900,122.0,5.0,60.0,-9999.0,'1111122,1111122,1111122' 
ADCP,ioos:station:wmo:42361:1,2017-09-03T10:30:00Z,27.5500,-92.4900,122.0,5.0,70.0,-9999.0,'1111122,1111122,1111122' 
ADCP,ioos:station:wmo:42361:1,2017-09-03T11:30:00Z,27.5500,-92.4900,122.0,5.0,90.0,-9999.0,'1111122,1111122,1111122' 
ADCP,ioos:station:wmo:42361:1,2017-09-03T12:30:00Z,27.5500,-92.4900,122.0,5.0,80.0,-9999.0,'1111122,1111122,1111122' 
ADCP,ioos:station:wmo:42361:1,2017-09-03T13:30:00Z,27.5500,-92.4900,122.0,4.0,70.0,-9999.0,'1111122,1111122,1111122' 
ADCP,ioos:station:wmo:42361:1,2017-09-03T14:30:00Z,27.5500,-92.4900,122.0,4.0,60.0,-9999.0,'1111122,1111122,1111122' 
ADCP,ioos:station:wmo:42361:1,2017-09-03T15:30:00Z,27.5500,-92.4900,122.0,4.0,50.0,-9999.0,'1111122,1111122,1111122' 
ADCP,ioos:station:wmo:42361:1,2017-09-03T16:30:00Z,27.5500,-92.4900,122.0,5.0,40.0,-9999.0,'1111122,1111122,1111122' 
ADCP,ioos:station:wmo:42361:1,2017-09-03T17:30:00Z,27.5500,-92.4900,122.0,5.0,40.0,-9999.0,'1111122,1111122,1111122' 
ADCP,ioos:station:wmo:42361:1,2017-09-03T18:30:00Z,27.5500,-92.4900,122.0,5.0,40.0,-9999.0,'1111122,1111122,1111122' 
ADCP,ioos:station:wmo:42361:1,2017-09-03T19:30:00Z,27.5500,-92.4900,122.0,5.0,40.0,-9999.0,'1111122,1111122,1111122' 
ADCP,ioos:station:wmo:42361:1,2017-09-03T20:30:00Z,27.5500,-92.4900,122.0,5.0,40.0,-9999.0,'1111122,1111122,1111122' 
ADCP,ioos:station:wmo:42361:1,2017-09-03T21:30:00Z,27.5500,-92.4900,122.0,4.0,40.0,-9999.0,'1111122,1111122,1111122' 
ADCP,ioos:station:wmo:42361:1,2017-09-03T22:30:00Z,27.5500,-92.4900,122.0,5.0,40.0,-9999.0,'1111122,1111122,1111122' 
ADCP,ioos:station:wmo:42361:1,2017-09-03T23:30:00Z,27.5500,-92.4900,122.0,6.0,40.0,-9999.0,'1111122,1111122,1111122' 
ADCP,ioos:station:wmo:42361:1,2017-09-04T00:30:00Z,27.5500,-92.4900,122.0,6.0,50.0,-9999.0,'1111122,1111122,1111122' 
ADCP,ioos:station:wmo:42361:1,2017-09-04T01:30:00Z,27.5500,-92.4900,122.0,6.0,50.0,-9999.0,'1111122,1111122,1111122' 
ADCP,ioos:station:wmo:42361:1,2017-09-04T02:30:00Z,27.5500,-92.4900,122.0,7.0,60.0,-9999.0,'1111122,1111122,1111122' 
ADCP,ioos:station:wmo:42361:1,2017-09-04T03:30:00Z,27.5500,-92.4900,122.0,6.0,70.0,-9999.0,'1111122,1111122,1111122' 
ADCP,ioos:station:wmo:42361:1,2017-09-04T04:30:00Z,27.5500,-92.4900,122.0,6.0,70.0,-9999.0,'1111122,1111122,1111122' 
ADCP,ioos:station:wmo:42361:1,2017-09-04T05:30:00Z,27.5500,-92.4900,122.0,6.0,80.0,-9999.0,'1111122,1111122,1111122' 
ADCP,ioos:station:wmo:42361:1,2017-09-04T06:30:00Z,27.5500,-92.4900,122.0,6.0,90.0,-9999.0,'1111122,1111122,1111122' 
ADCP,ioos:station:wmo:42361:1,2017-09-04T07:30:00Z,27.5500,-92.4900,122.0,6.0,80.0,-9999.0,'1111122,1111122,1111122' 
ADCP,ioos:station:wmo:42361:1,2017-09-04T08:30:00Z,27.5500,-92.4900,122.0,6.0,80.0,-9999.0,'1111122,1111122,1111122' 
ADCP,ioos:station:wmo:42361:1,2017-09-04T09:30:00Z,27.5500,-92.4900,122.0,6.0,90.0,-9999.0,'1111122,1111122,1111122' 
ADCP,ioos:station:wmo:42361:1,2017-09-04T10:30:00Z,27.5500,-92.4900,122.0,6.0,90.0,-9999.0,'1111122,1111122,1111122' 
ADCP,ioos:station:wmo:42361:1,2017-09-04T11:30:00Z,27.5500,-92.4900,122.0,5.0,80.0,-9999.0,'1111122,1111122,1111122' 
ADCP,ioos:station:wmo:42361:1,2017-09-04T12:30:00Z,27.5500,-92.4900,122.0,6.0,80.0,-9999.0,'1111122,1111122,1111122' 
ADCP,ioos:station:wmo:42361:1,2017-09-04T13:30:00Z,27.5500,-92.4900,122.0,5.0,70.0,-9999.0,'1111122,1111122,1111122' 
ADCP,ioos:station:wmo:42361:1,2017-09-04T14:30:00Z,27.5500,-92.4900,122.0,6.0,70.0,-9999.0,'1111122,1111122,1111122' 
ADCP,ioos:station:wmo:42361:1,2017-09-04T15:30:00Z,27.5500,-92.4900,122.0,6.0,70.0,-9999.0,'1111122,1111122,1111122' 
ADCP,ioos:station:wmo:42361:1,2017-09-04T16:30:00Z,27.5500,-92.4900,122.0,5.0,70.0,-9999.0,'1111122,1111122,1111122' 
ADCP,ioos:station:wmo:42361:1,2017-09-04T17:30:00Z,27.5500,-92.4900,122.0,6.0,80.0,-9999.0,'1111122,1111122,1111122' 
ADCP,ioos:station:wmo:42361:1,2017-09-04T18:30:00Z,27.5500,-92.4900,122.0,6.0,60.0,-9999.0,'1111122,1111122,1111122' 
ADCP,ioos:station:wmo:42361:1,2017-09-04T19:30:00Z,27.5500,-92.4900,122.0,7.0,80.0,-9999.0,'1111122,1111122,1111122' 
ADCP,ioos:station:wmo:42361:1,2017-09-04T20:30:00Z,27.5500,-92.4900,122.0,4.0,90.0,-9999.0,'1111122,1111122,1111122' 
ADCP,ioos:station:wmo:42361:1,2017-09-04T21:30:00Z,27.5500,-92.4900,122.0,4.0,80.0,-9999.0,'1111122,1111122,1111122' 
ADCP,ioos:station:wmo:42361:1,2017-09-04T22:30:00Z,27.5500,-92.4900,122.0,5.0,70.0,-9999.0,'1111122,1111122,1111122' 
ADCP,ioos:station:wmo:42361:1,2017-09-04T23:30:00Z,27.5500,-92.4900,122.0,4.6,81.0,99.0,'11111222,11111222,11144222' 
ADCP,ioos:station:wmo:42361:1,2017-09-05T00:30:00Z,27.5500,-92.4900,122.0,4.0,60.0,-9999.0,'1111122,1111122,1111122' 
ADCP,ioos:station:wmo:42361:1,2017-09-05T01:30:00Z,27.5500,-92.4900,122.0,5.0,70.0,-9999.0,'1111122,1111122,1111122' 
ADCP,ioos:station:wmo:42361:1,2017-09-05T02:30:00Z,27.5500,-92.4900,122.0,6.0,80.0,-9999.0,'1111122,1111122,1111122' 
ADCP,ioos:station:wmo:42361:1,2017-09-05T03:30:00Z,27.5500,-92.4900,122.0,7.0,80.0,-9999.0,'1111122,1111122,1111122' 
ADCP,ioos:station:wmo:42361:1,2017-09-05T04:30:00Z,27.5500,-92.4900,122.0,6.0,100.0,-9999.0,'1111122,1111122,1111122' 
ADCP,ioos:station:wmo:42361:1,2017-09-05T05:30:00Z,27.5500,-92.4900,122.0,6.0,100.0,-9999.0,'1111122,1111122,1111122' 
ADCP,ioos:station:wmo:42361:1,2017-09-05T06:30:00Z,27.5500,-92.4900,122.0,4.0,110.0,-9999.0,'1111122,1111122,1111122' 
ADCP,ioos:station:wmo:42361:1,2017-09-05T07:30:00Z,27.5500,-92.4900,122.0,4.0,100.0,-9999.0,'1111122,1111122,1111122' 
ADCP,ioos:station:wmo:42361:1,2017-09-05T08:30:00Z,27.5500,-92.4900,122.0,4.0,110.0,-9999.0,'1111122,1111122,1111122' 
ADCP,ioos:station:wmo:42361:1,2017-09-05T09:30:00Z,27.5500,-92.4900,122.0,3.0,120.0,-9999.0,'1111122,1111122,1111122' 
ADCP,ioos:station:wmo:42361:1,2017-09-05T10:30:00Z,27.5500,-92.4900,122.0,3.0,140.0,-9999.0,'1111122,1111122,1111122' 
ADCP,ioos:station:wmo:42361:1,2017-09-05T11:30:00Z,27.5500,-92.4900,122.0,1.0,80.0,-9999.0,'1111122,1111122,1111122' 
ADCP,ioos:station:wmo:42361:1,2017-09-05T12:30:00Z,27.5500,-92.4900,122.0,3.0,60.0,-9999.0,'1111122,1111122,1111122' 
ADCP,ioos:station:wmo:42361:1,2017-09-05T13:30:00Z,27.5500,-92.4900,122.0,4.0,260.0,-9999.0,'1111122,1111122,1111122' 
ADCP,ioos:station:wmo:42361:1,2017-09-05T14:30:00Z,27.5500,-92.4900,122.0,2.0,10.0,-9999.0,'1111122,1111122,1111122' 
ADCP,ioos:station:wmo:42361:1,2017-09-05T15:30:00Z,27.5500,-92.4900,122.0,1.0,320.0,-9999.0,'1111122,1111122,1111122' 
ADCP,ioos:station:wmo:42361:1,2017-09-05T16:30:00Z,27.5500,-92.4900,122.0,4.0,310.0,-9999.0,'1111122,1111122,1111122' 
ADCP,ioos:station:wmo:42361:1,2017-09-05T17:30:00Z,27.5500,-92.4900,122.0,11.0,60.0,-9999.0,'1111122,1111122,1111122' 
ADCP,ioos:station:wmo:42361:1,2017-09-05T18:30:00Z,27.5500,-92.4900,122.0,10.0,110.0,-9999.0,'1111122,1111122,1111122' 
ADCP,ioos:station:wmo:42361:1,2017-09-05T19:30:00Z,27.5500,-92.4900,122.0,7.0,140.0,-9999.0,'1111122,1111122,1111122' 
ADCP,ioos:station:wmo:42361:1,2017-09-05T20:30:00Z,27.5500,-92.4900,122.0,8.0,140.0,-9999.0,'1111122,1111122,1111122' 
ADCP,ioos:station:wmo:42361:1,2017-09-05T21:30:00Z,27.5500,-92.4900,122.0,5.0,150.0,-9999.0,'1111122,1111122,1111122' 
ADCP,ioos:station:wmo:42361:1,2017-09-05T22:30:00Z,27.5500,-92.4900,122.0,5.0,150.0,-9999.0,'1111122,1111122,1111122' 
ADCP,ioos:station:wmo:42361:1,2017-09-05T23:30:00Z,27.5500,-92.4900,122.0,3.0,240.0,-9999.0,'1111122,1111122,1111122' 
ADCP,ioos:station:wmo:42361:1,2017-09-06T00:30:00Z,27.5500,-92.4900,122.0,2.0,250.0,-9999.0,'1111122,1111122,1111122' 
ADCP,ioos:station:wmo:42361:1,2017-09-06T01:30:00Z,27.5500,-92.4900,122.0,2.0,240.0,-9999.0,'1111122,1111122,1111122' 
ADCP,ioos:station:wmo:42361:1,2017-09-06T02:30:00Z,27.5500,-92.4900,122.0,3.3,108.0,99.0,'11111222,11111222,11144222' 
ADCP,ioos:station:wmo:42361:1,2017-09-06T03:30:00Z,27.5500,-92.4900,122.0,3.0,45.0,99.0,'11111222,11111222,11144222' 
ADCP,ioos:station:wmo:42361:1,2017-09-06T04:30:00Z,27.5500,-92.4900,122.0,4.1,22.0,99.0,'11111222,11111222,11144222' 
ADCP,ioos:station:wmo:42361:1,2017-09-06T05:30:00Z,27.5500,-92.4900,122.0,5.9,1.0,99.0,'11111222,11111222,11144222' 
ADCP,ioos:station:wmo:42361:1,2017-09-06T06:30:00Z,27.5500,-92.4900,122.0,6.0,359.0,99.0,'11111222,11111222,11144222' 
ADCP,ioos:station:wmo:42361:1,2017-09-06T07:30:00Z,27.5500,-92.4900,122.0,4.7,19.0,99.0,'11111222,11111222,11144222' 
ADCP,ioos:station:wmo:42361:1,2017-09-06T08:30:00Z,27.5500,-92.4900,122.0,3.4,15.0,99.0,'11111222,11111222,11144222' 
ADCP,ioos:station:wmo:42361:1,2017-09-06T09:30:00Z,27.5500,-92.4900,122.0,2.0,48.0,99.0,'11111222,11111222,11144222' 
ADCP,ioos:station:wmo:42361:1,2017-09-06T10:30:00Z,27.5500,-92.4900,122.0,3.1,81.0,99.0,'11111222,11111222,11144222' 
ADCP,ioos:station:wmo:42361:1,2017-09-06T11:30:00Z,27.5500,-92.4900,122.0,2.5,55.0,99.0,'11111222,11111222,11144222' 
ADCP,ioos:station:wmo:42361:1,2017-09-06T12:30:00Z,27.5500,-92.4900,122.0,2.7,58.0,99.0,'11111222,11111222,11144222' 
ADCP,ioos:station:wmo:42361:1,2017-09-06T13:30:00Z,27.5500,-92.4900,122.0,2.7,21.0,99.0,'11111222,11111222,11144222' 
ADCP,ioos:station:wmo:42361:1,2017-09-06T14:30:00Z,27.5500,-92.4900,122.0,4.0,351.0,99.0,'11111222,11111222,11144222' 
ADCP,ioos:station:wmo:42361:1,2017-09-06T15:30:00Z,27.5500,-92.4900,122.0,5.1,343.0,99.0,'11111222,11111222,11144222' 
ADCP,ioos:station:wmo:42361:1,2017-09-06T16:30:00Z,27.5500,-92.4900,122.0,4.2,345.0,99.0,'11111222,11111222,11144222' 
ADCP,ioos:station:wmo:42361:1,2017-09-06T17:30:00Z,27.5500,-92.4900,122.0,4.5,346.0,99.0,'11111222,11111222,11144222' 
ADCP,ioos:station:wmo:42361:1,2017-09-06T18:30:00Z,27.5500,-92.4900,122.0,5.1,351.0,99.0,'11111222,11111222,11144222' 
ADCP,ioos:station:wmo:42361:1,2017-09-06T19:30:00Z,27.5500,-92.4900,122.0,5.2,351.0,99.0,'11111222,11111222,11144222' 
ADCP,ioos:station:wmo:42361:1,2017-09-06T20:30:00Z,27.5500,-92.4900,122.0,4.8,355.0,99.0,'11111222,11111222,11144222' 
ADCP,ioos:station:wmo:42361:1,2017-09-06T21:30:00Z,27.5500,-92.4900,122.0,6.9,358.0,99.0,'11111222,11111222,11144222' 
ADCP,ioos:station:wmo:42361:1,2017-09-06T22:30:00Z,27.5500,-92.4900,122.0,9.1,357.0,99.0,'11111222,11111222,11144222' 
ADCP,ioos:station:wmo:42361:1,2017-09-06T23:30:00Z,27.5500,-92.4900,122.0,9.5,348.0,99.0,'11111222,11111222,11144222' 
ADCP,ioos:station:wmo:42361:1,2017-09-07T00:30:00Z,27.5500,-92.4900,122.0,9.2,350.0,99.0,'11111222,11111222,11144222' 
ADCP,ioos:station:wmo:42361:1,2017-09-07T01:30:00Z,27.5500,-92.4900,122.0,9.7,350.0,99.0,'11111222,11111222,11144222' 
ADCP,ioos:station:wmo:42361:1,2017-09-07T02:30:00Z,27.5500,-92.4900,122.0,9.3,351.0,99.0,'11111222,11111222,11144222' 
ADCP,ioos:station:wmo:42361:1,2017-09-07T03:30:00Z,27.5500,-92.4900,122.0,9.2,356.0,99.0,'11111222,11111222,11144222' 
ADCP,ioos:station:wmo:42361:1,2017-09-07T04:30:00Z,27.5500,-92.4900,122.0,10.0,360.0,99.0,'11111222,11144222,11144222' 
ADCP,ioos:station:wmo:42361:1,2017-09-07T05:30:00Z,27.5500,-92.4900,122.0,10.8,2.0,99.0,'11111222,11111222,11144222' 
ADCP,ioos:station:wmo:42361:1,2017-09-07T06:30:00Z,27.5500,-92.4900,122.0,13.3,8.0,99.0,'11111222,11111222,11144222' 
ADCP,ioos:station:wmo:42361:1,2017-09-07T07:30:00Z,27.5500,-92.4900,122.0,14.0,10.0,99.0,'11111222,11111222,11144222' 
ADCP,ioos:station:wmo:42361:1,2017-09-07T08:30:00Z,27.5500,-92.4900,122.0,13.5,8.0,99.0,'11111222,11111222,11144222' 
ADCP,ioos:station:wmo:42361:1,2017-09-07T09:30:00Z,27.5500,-92.4900,122.0,13.9,9.0,99.0,'11111222,11111222,11144222' 
ADCP,ioos:station:wmo:42361:1,2017-09-07T10:30:00Z,27.5500,-92.4900,122.0,13.6,10.0,99.0,'11111222,11111222,11144222' 
ADCP,ioos:station:wmo:42361:1,2017-09-07T11:30:00Z,27.5500,-92.4900,122.0,13.3,15.0,99.0,'11111222,11111222,11144222' 
ADCP,ioos:station:wmo:42361:1,2017-09-07T12:30:00Z,27.5500,-92.4900,122.0,13.4,13.0,99.0,'11111222,11111222,11144222' 
ADCP,ioos:station:wmo:42361:1,2017-09-07T13:30:00Z,27.5500,-92.4900,122.0,13.0,20.0,99.0,'11111222,11111222,11144222' 
ADCP,ioos:station:wmo:42361:1,2017-09-07T14:30:00Z,27.5500,-92.4900,122.0,13.0,20.0,-9999.0,'1111122,1111122,1111122' 
ADCP,ioos:station:wmo:42361:1,2017-09-07T15:30:00Z,27.5500,-92.4900,122.0,12.0,40.0,-9999.0,'1111122,1111122,1111122' 
ADCP,ioos:station:wmo:42361:1,2017-09-07T16:30:00Z,27.5500,-92.4900,122.0,11.0,40.0,-9999.0,'1111122,1111122,1111122' 
ADCP,ioos:station:wmo:42361:1,2017-09-07T17:30:00Z,27.5500,-92.4900,122.0,10.0,40.0,-9999.0,'1111122,1111122,1111122' 
ADCP,ioos:station:wmo:42361:1,2017-09-07T18:30:00Z,27.5500,-92.4900,122.0,10.0,40.0,-9999.0,'1111122,1111122,1111122' 
ADCP,ioos:station:wmo:42361:1,2017-09-07T19:30:00Z,27.5500,-92.4900,122.0,11.0,30.0,-9999.0,'1111122,1111122,1111122' 
ADCP,ioos:station:wmo:42361:1,2017-09-07T20:30:00Z,27.5500,-92.4900,122.0,11.0,20.0,-9999.0,'1111122,1111122,1111122' 
ADCP,ioos:station:wmo:42361:1,2017-09-07T21:30:00Z,27.5500,-92.4900,122.0,12.0,20.0,-9999.0,'1111122,1111122,1111122' 
ADCP,ioos:station:wmo:42361:1,2017-09-07T22:30:00Z,27.5500,-92.4900,122.0,12.0,20.0,-9999.0,'1111122,1111122,1111122' 
ADCP,ioos:station:wmo:42361:1,2017-09-07T23:30:00Z,27.5500,-92.4900,122.0,12.0,20.0,-9999.0,'1111122,1111122,1111122' 
ADCP,ioos:station:wmo:42361:1,2017-09-08T00:30:00Z,27.5500,-92.4900,122.0,12.0,20.0,-9999.0,'1111122,1111122,1111122' 
ADCP,ioos:station:wmo:42361:1,2017-09-08T01:30:00Z,27.5500,-92.4900,122.0,14.0,20.0,-9999.0,'1111122,1111122,1111122' 
ADCP,ioos:station:wmo:42361:1,2017-09-08T02:30:00Z,27.5500,-92.4900,122.0,15.4,23.0,99.0,'11111222,11111222,11144222' 
ADCP,ioos:station:wmo:42361:1,2017-09-08T03:30:00Z,27.5500,-92.4900,122.0,15.0,20.0,-9999.0,'1111122,1111122,1111122' 
ADCP,ioos:station:wmo:42361:1,2017-09-08T04:30:00Z,27.5500,-92.4900,122.0,14.0,30.0,-9999.0,'1111122,1111122,1111122' 
ADCP,ioos:station:wmo:42361:1,2017-09-08T05:30:00Z,27.5500,-92.4900,122.0,13.0,30.0,-9999.0,'1111122,1111122,1111122' 
ADCP,ioos:station:wmo:42361:1,2017-09-08T06:30:00Z,27.5500,-92.4900,122.0,13.0,30.0,-9999.0,'1111122,1111122,1111122' 
ADCP,ioos:station:wmo:42361:1,2017-09-08T07:30:00Z,27.5500,-92.4900,122.0,13.0,30.0,-9999.0,'1111122,1111122,1111122' 
ADCP,ioos:station:wmo:42361:1,2017-09-08T08:30:00Z,27.5500,-92.4900,122.0,12.0,40.0,-9999.0,'1111122,1111122,1111122' 
ADCP,ioos:station:wmo:42361:1,2017-09-08T09:30:00Z,27.5500,-92.4900,122.0,12.0,40.0,-9999.0,'1111122,1111122,1111122' 
ADCP,ioos:station:wmo:42361:1,2017-09-08T10:30:00Z,27.5500,-92.4900,122.0,12.0,40.0,-9999.0,'1111122,1111122,1111122' 
ADCP,ioos:station:wmo:42361:1,2017-09-08T11:30:00Z,27.5500,-92.4900,122.0,11.0,40.0,-9999.0,'1111122,1111122,1111122' 
ADCP,ioos:station:wmo:42361:1,2017-09-08T12:30:00Z,27.5500,-92.4900,122.0,11.0,30.0,-9999.0,'1111122,1111122,1111122' 
ADCP,ioos:station:wmo:42361:1,2017-09-08T13:30:00Z,27.5500,-92.4900,122.0,11.0,30.0,-9999.0,'1111122,1111122,1111122' 
ADCP,ioos:station:wmo:42361:1,2017-09-08T14:30:00Z,27.5500,-92.4900,122.0,10.0,30.0,-9999.0,'1111122,1111122,1111122' 
ADCP,ioos:station:wmo:42361:1,2017-09-08T15:30:00Z,27.5500,-92.4900,122.0,10.0,30.0,-9999.0,'1111122,1111122,1111122' 
ADCP,ioos:station:wmo:42361:1,2017-09-08T16:30:00Z,27.5500,-92.4900,122.0,10.0,30.0,-9999.0,'1111122,1111122,1111122' 
ADCP,ioos:station:wmo:42361:1,2017-09-08T17:30:00Z,27.5500,-92.4900,122.0,10.0,20.0,-9999.0,'1111122,1111122,1111122' 
ADCP,ioos:station:wmo:42361:1,2017-09-08T18:30:00Z,27.5500,-92.4900,122.0,10.0,20.0,-9999.0,'1111122,1111122,1111122' 
ADCP,ioos:station:wmo:42361:1,2017-09-08T19:30:00Z,27.5500,-92.4900,122.0,11.0,20.0,-9999.0,'1111122,1111122,1111122' 
ADCP,ioos:station:wmo:42361:1,2017-09-08T20:30:00Z,27.5500,-92.4900,122.0,11.0,20.0,-9999.0,'1111122,1111122,1111122' 
ADCP,ioos:station:wmo:42361:1,2017-09-08T21:30:00Z,27.5500,-92.4900,122.0,11.0,20.0,-9999.0,'1111122,1111122,1111122' 
ADCP,ioos:station:wmo:42361:1,2017-09-08T22:30:00Z,27.5500,-92.4900,122.0,10.0,20.0,-9999.0,'1111122,1111122,1111122' 
ADCP,ioos:station:wmo:42361:1,2017-09-08T23:30:00Z,27.5500,-92.4900,122.0,10.0,20.0,-9999.0,'1111122,1111122,1111122' 
ADCP,ioos:station:wmo:42361:1,2017-09-09T00:30:00Z,27.5500,-92.4900,122.0,9.0,20.0,-9999.0,'1111122,1111122,1111122' 
ADCP,ioos:station:wmo:42361:1,2017-09-09T01:30:00Z,27.5500,-92.4900,122.0,9.0,20.0,-9999.0,'1111122,1111122,1111122' 
ADCP,ioos:station:wmo:42361:1,2017-09-09T02:30:00Z,27.5500,-92.4900,122.0,9.0,20.0,-9999.0,'1111122,1111122,1111122' 
ADCP,ioos:station:wmo:42361:1,2017-09-09T03:30:00Z,27.5500,-92.4900,122.0,10.0,20.0,-9999.0,'1111122,1111122,1111122' 
ADCP,ioos:station:wmo:42361:1,2017-09-09T04:30:00Z,27.5500,-92.4900,122.0,10.0,20.0,-9999.0,'1111122,1111122,1111122' 
ADCP,ioos:station:wmo:42361:1,2017-09-09T05:30:00Z,27.5500,-92.4900,122.0,10.0,20.0,-9999.0,'1111122,1111122,1111122' 
ADCP,ioos:station:wmo:42361:1,2017-09-09T06:30:00Z,27.5500,-92.4900,122.0,9.0,20.0,-9999.0,'1111122,1111122,1111122' 
ADCP,ioos:station:wmo:42361:1,2017-09-09T07:30:00Z,27.5500,-92.4900,122.0,10.0,10.0,-9999.0,'1111122,1111122,1111122' 
ADCP,ioos:station:wmo:42361:1,2017-09-09T08:30:00Z,27.5500,-92.4900,122.0,10.0,10.0,-9999.0,'1111122,1111122,1111122' 